Year,Month,Day,Hour,Minute,Value (Times are PST for windspeed in km/hr)
2017,05,23,00,00,4.20
2017,05,23,00,01,3.20
2017,05,23,00,02,4.00
2017,05,23,00,03,3.80
2017,05,23,00,04,3.70
2017,05,23,00,05,4.80
2017,05,23,00,06,5.30
2017,05,23,00,07,5.30
2017,05,23,00,08,5.10
2017,05,23,00,09,6.40
2017,05,23,00,10,7.10
2017,05,23,00,11,7.10
2017,05,23,00,12,6.50
2017,05,23,00,13,4.70
2017,05,23,00,14,6.20
2017,05,23,00,15,4.20
2017,05,23,00,16,6.50
2017,05,23,00,17,6.90
2017,05,23,00,18,3.90
2017,05,23,00,19,3.90
2017,05,23,00,20,2.50
2017,05,23,00,21,2.60
2017,05,23,00,22,2.80
2017,05,23,00,23,3.00
2017,05,23,00,24,3.40
2017,05,23,00,25,1.50
2017,05,23,00,26,2.60
2017,05,23,00,27,2.90
2017,05,23,00,28,2.70
2017,05,23,00,29,2.00
2017,05,23,00,30,2.40
2017,05,23,00,31,1.80
2017,05,23,00,32,3.30
2017,05,23,00,33,3.30
2017,05,23,00,34,2.70
2017,05,23,00,35,0.50
2017,05,23,00,36,2.60
2017,05,23,00,37,3.40
2017,05,23,00,38,3.10
2017,05,23,00,39,3.00
2017,05,23,00,40,4.90
2017,05,23,00,41,4.60
2017,05,23,00,42,5.30
2017,05,23,00,43,5.60
2017,05,23,00,44,4.60
2017,05,23,00,45,7.10
2017,05,23,00,46,4.40
2017,05,23,00,47,6.80
2017,05,23,00,48,6.40
2017,05,23,00,49,6.10
2017,05,23,00,50,5.50
2017,05,23,00,51,6.00
2017,05,23,00,52,6.50
2017,05,23,00,53,5.40
2017,05,23,00,54,3.20
2017,05,23,00,55,5.70
2017,05,23,00,56,3.70
2017,05,23,00,57,2.90
2017,05,23,00,58,3.10
2017,05,23,00,59,3.50
2017,05,23,01,00,5.00
2017,05,23,01,01,2.30
2017,05,23,01,02,3.10
2017,05,23,01,03,4.30
2017,05,23,01,04,3.70
2017,05,23,01,05,4.10
2017,05,23,01,06,1.60
2017,05,23,01,07,2.80
2017,05,23,01,08,2.10
2017,05,23,01,09,2.80
2017,05,23,01,10,1.40
2017,05,23,01,11,0.20
2017,05,23,01,12,0.30
2017,05,23,01,13,0.70
2017,05,23,01,14,0.20
2017,05,23,01,15,0.10
2017,05,23,01,16,0.30
2017,05,23,01,17,0.00
2017,05,23,01,18,0.00
2017,05,23,01,19,1.10
2017,05,23,01,20,2.50
2017,05,23,01,21,0.70
2017,05,23,01,22,0.00
2017,05,23,01,23,0.00
2017,05,23,01,24,0.00
2017,05,23,01,25,0.00
2017,05,23,01,26,0.00
2017,05,23,01,27,0.00
2017,05,23,01,28,0.10
2017,05,23,01,29,0.00
2017,05,23,01,30,0.00
2017,05,23,01,31,0.00
2017,05,23,01,32,0.00
2017,05,23,01,33,0.00
2017,05,23,01,34,0.00
2017,05,23,01,35,0.00
2017,05,23,01,36,0.00
2017,05,23,01,37,0.00
2017,05,23,01,38,0.00
2017,05,23,01,39,0.00
2017,05,23,01,40,0.00
2017,05,23,01,41,0.00
2017,05,23,01,42,0.00
2017,05,23,01,43,0.00
2017,05,23,01,44,0.00
2017,05,23,01,45,0.00
2017,05,23,01,46,0.00
2017,05,23,01,47,0.00
2017,05,23,01,48,0.00
2017,05,23,01,49,0.00
2017,05,23,01,50,0.00
2017,05,23,01,51,0.00
2017,05,23,01,52,0.00
2017,05,23,01,53,0.00
2017,05,23,01,54,0.00
2017,05,23,01,55,0.00
2017,05,23,01,56,0.10
2017,05,23,01,57,0.00
2017,05,23,01,58,0.00
2017,05,23,01,59,0.00
2017,05,23,02,00,0.00
2017,05,23,02,01,0.00
2017,05,23,02,02,0.00
2017,05,23,02,03,0.00
2017,05,23,02,04,0.00
2017,05,23,02,05,0.00
2017,05,23,02,06,0.10
2017,05,23,02,07,0.00
2017,05,23,02,08,0.00
2017,05,23,02,09,0.00
2017,05,23,02,10,0.70
2017,05,23,02,11,0.10
2017,05,23,02,12,0.00
2017,05,23,02,13,0.00
2017,05,23,02,14,0.00
2017,05,23,02,15,0.00
2017,05,23,02,16,0.00
2017,05,23,02,17,0.00
2017,05,23,02,18,0.00
2017,05,23,02,19,0.00
2017,05,23,02,20,0.00
2017,05,23,02,21,0.00
2017,05,23,02,22,0.10
2017,05,23,02,23,0.00
2017,05,23,02,24,0.00
2017,05,23,02,25,0.00
2017,05,23,02,26,0.00
2017,05,23,02,27,0.00
2017,05,23,02,28,0.00
2017,05,23,02,29,0.00
2017,05,23,02,30,0.00
2017,05,23,02,31,0.00
2017,05,23,02,32,0.00
2017,05,23,02,33,0.00
2017,05,23,02,34,0.00
2017,05,23,02,35,0.00
2017,05,23,02,36,0.00
2017,05,23,02,37,0.00
2017,05,23,02,38,0.00
2017,05,23,02,39,1.00
2017,05,23,02,40,0.30
2017,05,23,02,41,1.30
2017,05,23,02,42,1.10
2017,05,23,02,43,0.20
2017,05,23,02,44,0.30
2017,05,23,02,45,0.10
2017,05,23,02,46,0.00
2017,05,23,02,47,0.00
2017,05,23,02,48,0.00
2017,05,23,02,49,0.00
2017,05,23,02,50,0.20
2017,05,23,02,51,1.30
2017,05,23,02,52,0.90
2017,05,23,02,53,0.10
2017,05,23,02,54,0.00
2017,05,23,02,55,0.10
2017,05,23,02,56,0.00
2017,05,23,02,57,0.10
2017,05,23,02,58,2.20
2017,05,23,02,59,2.40
2017,05,23,03,00,0.10
2017,05,23,03,01,1.60
2017,05,23,03,02,0.50
2017,05,23,03,03,2.00
2017,05,23,03,04,1.90
2017,05,23,03,05,1.70
2017,05,23,03,06,0.70
2017,05,23,03,07,2.60
2017,05,23,03,08,4.70
2017,05,23,03,09,3.50
2017,05,23,03,10,8.00
2017,05,23,03,11,5.10
2017,05,23,03,12,5.30
2017,05,23,03,13,6.00
2017,05,23,03,14,4.40
2017,05,23,03,15,5.10
2017,05,23,03,16,3.20
2017,05,23,03,17,3.30
2017,05,23,03,18,2.20
2017,05,23,03,19,1.30
2017,05,23,03,20,2.30
2017,05,23,03,21,1.10
2017,05,23,03,22,0.50
2017,05,23,03,23,2.10
2017,05,23,03,24,3.40
2017,05,23,03,25,4.50
2017,05,23,03,26,2.40
2017,05,23,03,27,1.40
2017,05,23,03,28,0.20
2017,05,23,03,29,1.10
2017,05,23,03,30,0.10
2017,05,23,03,31,0.00
2017,05,23,03,32,0.00
2017,05,23,03,33,0.00
2017,05,23,03,34,0.00
2017,05,23,03,35,0.00
2017,05,23,03,36,0.00
2017,05,23,03,37,0.00
2017,05,23,03,38,1.50
2017,05,23,03,39,0.90
2017,05,23,03,40,0.30
2017,05,23,03,41,1.20
2017,05,23,03,42,0.60
2017,05,23,03,43,1.20
2017,05,23,03,44,1.30
2017,05,23,03,45,1.10
2017,05,23,03,46,1.20
2017,05,23,03,47,1.30
2017,05,23,03,48,0.80
2017,05,23,03,49,0.40
2017,05,23,03,50,0.00
2017,05,23,03,51,0.00
2017,05,23,03,52,0.00
2017,05,23,03,53,0.00
2017,05,23,03,54,0.00
2017,05,23,03,55,0.00
2017,05,23,03,56,0.00
2017,05,23,03,57,0.00
2017,05,23,03,58,0.00
2017,05,23,03,59,0.00
2017,05,23,04,00,0.00
2017,05,23,04,01,0.00
2017,05,23,04,02,0.00
2017,05,23,04,03,0.00
2017,05,23,04,04,0.00
2017,05,23,04,05,0.00
2017,05,23,04,06,0.00
2017,05,23,04,07,0.00
2017,05,23,04,08,0.00
2017,05,23,04,09,0.00
2017,05,23,04,10,0.00
2017,05,23,04,11,0.00
2017,05,23,04,12,0.00
2017,05,23,04,13,0.00
2017,05,23,04,14,0.00
2017,05,23,04,15,0.00
2017,05,23,04,16,0.00
2017,05,23,04,17,0.00
2017,05,23,04,18,0.00
2017,05,23,04,19,0.00
2017,05,23,04,20,0.10
2017,05,23,04,21,2.00
2017,05,23,04,22,0.00
2017,05,23,04,23,0.70
2017,05,23,04,24,0.80
2017,05,23,04,25,2.80
2017,05,23,04,26,1.00
2017,05,23,04,27,4.20
2017,05,23,04,28,3.80
2017,05,23,04,29,4.10
2017,05,23,04,30,9.00
2017,05,23,04,31,7.70
2017,05,23,04,32,11.00
2017,05,23,04,33,7.20
2017,05,23,04,34,11.70
2017,05,23,04,35,9.90
2017,05,23,04,36,9.30
2017,05,23,04,37,9.00
2017,05,23,04,38,10.10
2017,05,23,04,39,11.00
2017,05,23,04,40,10.50
2017,05,23,04,41,9.50
2017,05,23,04,42,10.00
2017,05,23,04,43,11.50
2017,05,23,04,44,9.30
2017,05,23,04,45,10.80
2017,05,23,04,46,11.00
2017,05,23,04,47,6.30
2017,05,23,04,48,8.20
2017,05,23,04,49,8.10
2017,05,23,04,50,8.90
2017,05,23,04,51,7.50
2017,05,23,04,52,6.40
2017,05,23,04,53,4.90
2017,05,23,04,54,3.20
2017,05,23,04,55,5.50
2017,05,23,04,56,4.40
2017,05,23,04,57,4.80
2017,05,23,04,58,5.00
2017,05,23,04,59,2.80
2017,05,23,05,00,1.30
2017,05,23,05,01,1.50
2017,05,23,05,02,3.40
2017,05,23,05,03,4.00
2017,05,23,05,04,3.60
2017,05,23,05,05,3.30
2017,05,23,05,06,1.10
2017,05,23,05,07,0.10
2017,05,23,05,08,0.00
2017,05,23,05,09,0.10
2017,05,23,05,10,0.70
2017,05,23,05,11,0.50
2017,05,23,05,12,0.10
2017,05,23,05,13,0.00
2017,05,23,05,14,0.00
2017,05,23,05,15,0.00
2017,05,23,05,16,0.00
2017,05,23,05,17,0.00
2017,05,23,05,18,0.00
2017,05,23,05,19,0.00
2017,05,23,05,20,0.00
2017,05,23,05,21,0.00
2017,05,23,05,22,0.00
2017,05,23,05,23,1.20
2017,05,23,05,24,0.10
2017,05,23,05,25,0.00
2017,05,23,05,26,0.60
2017,05,23,05,27,1.60
2017,05,23,05,28,1.50
2017,05,23,05,29,1.90
2017,05,23,05,30,2.10
2017,05,23,05,31,1.80
2017,05,23,05,32,1.10
2017,05,23,05,33,1.80
2017,05,23,05,34,0.10
2017,05,23,05,35,0.60
2017,05,23,05,36,0.20
2017,05,23,05,37,1.00
2017,05,23,05,38,0.40
2017,05,23,05,39,0.00
2017,05,23,05,40,0.00
2017,05,23,05,41,0.00
2017,05,23,05,42,0.00
2017,05,23,05,43,0.20
2017,05,23,05,44,1.80
2017,05,23,05,45,3.60
2017,05,23,05,46,2.10
2017,05,23,05,47,1.30
2017,05,23,05,48,1.20
2017,05,23,05,49,1.40
2017,05,23,05,50,1.50
2017,05,23,05,51,0.50
2017,05,23,05,52,0.00
2017,05,23,05,53,0.20
2017,05,23,05,54,1.10
2017,05,23,05,55,0.40
2017,05,23,05,56,0.40
2017,05,23,05,57,0.00
2017,05,23,05,58,0.00
2017,05,23,05,59,2.10
2017,05,23,06,00,0.00
2017,05,23,06,01,1.80
2017,05,23,06,02,0.40
2017,05,23,06,03,0.70
2017,05,23,06,04,1.00
2017,05,23,06,05,3.40
2017,05,23,06,06,6.40
2017,05,23,06,07,8.30
2017,05,23,06,08,7.50
2017,05,23,06,09,8.90
2017,05,23,06,10,10.50
2017,05,23,06,11,11.90
2017,05,23,06,12,10.90
2017,05,23,06,13,12.10
2017,05,23,06,14,9.10
2017,05,23,06,15,9.70
2017,05,23,06,16,7.80
2017,05,23,06,17,7.30
2017,05,23,06,18,7.20
2017,05,23,06,19,7.00
2017,05,23,06,20,7.40
2017,05,23,06,21,7.00
2017,05,23,06,22,3.70
2017,05,23,06,23,4.20
2017,05,23,06,24,5.50
2017,05,23,06,25,4.40
2017,05,23,06,26,3.70
2017,05,23,06,27,6.60
2017,05,23,06,28,6.10
2017,05,23,06,29,4.20
2017,05,23,06,30,2.60
2017,05,23,06,31,0.00
2017,05,23,06,32,3.10
2017,05,23,06,33,0.90
2017,05,23,06,34,1.30
2017,05,23,06,35,0.40
2017,05,23,06,36,0.10
2017,05,23,06,37,1.80
2017,05,23,06,38,4.30
2017,05,23,06,39,1.20
2017,05,23,06,40,0.10
2017,05,23,06,41,0.50
2017,05,23,06,42,2.50
2017,05,23,06,43,1.50
2017,05,23,06,44,1.10
2017,05,23,06,45,0.20
2017,05,23,06,46,0.10
2017,05,23,06,47,1.80
2017,05,23,06,48,1.50
2017,05,23,06,49,1.40
2017,05,23,06,50,3.70
2017,05,23,06,51,1.80
2017,05,23,06,52,2.30
2017,05,23,06,53,2.50
2017,05,23,06,54,5.30
2017,05,23,06,55,2.30
2017,05,23,06,56,0.80
2017,05,23,06,57,1.60
2017,05,23,06,58,3.70
2017,05,23,06,59,1.60
2017,05,23,07,00,2.00
2017,05,23,07,01,3.70
2017,05,23,07,02,0.20
2017,05,23,07,03,0.10
2017,05,23,07,04,0.10
2017,05,23,07,05,2.50
2017,05,23,07,06,0.20
2017,05,23,07,07,2.70
2017,05,23,07,08,2.70
2017,05,23,07,09,3.30
2017,05,23,07,10,2.30
2017,05,23,07,11,2.30
2017,05,23,07,12,2.20
2017,05,23,07,13,2.90
2017,05,23,07,14,4.70
2017,05,23,07,15,4.80
2017,05,23,07,16,6.20
2017,05,23,07,17,2.20
2017,05,23,07,18,2.60
2017,05,23,07,19,3.00
2017,05,23,07,20,5.00
2017,05,23,07,21,7.10
2017,05,23,07,22,5.30
2017,05,23,07,23,3.70
2017,05,23,07,24,2.90
2017,05,23,07,25,3.80
2017,05,23,07,26,5.60
2017,05,23,07,27,6.80
2017,05,23,07,28,5.30
2017,05,23,07,29,3.70
2017,05,23,07,30,2.70
2017,05,23,07,31,7.30
2017,05,23,07,32,4.40
2017,05,23,07,33,4.90
2017,05,23,07,34,3.40
2017,05,23,07,35,4.30
2017,05,23,07,36,2.50
2017,05,23,07,37,2.60
2017,05,23,07,38,1.00
2017,05,23,07,39,2.50
2017,05,23,07,40,3.20
2017,05,23,07,41,3.10
2017,05,23,07,42,3.10
2017,05,23,07,43,1.20
2017,05,23,07,44,1.80
2017,05,23,07,45,4.00
2017,05,23,07,46,3.20
2017,05,23,07,47,4.00
2017,05,23,07,48,3.10
2017,05,23,07,49,3.80
2017,05,23,07,50,4.60
2017,05,23,07,51,3.00
2017,05,23,07,52,5.40
2017,05,23,07,53,4.20
2017,05,23,07,54,4.90
2017,05,23,07,55,4.70
2017,05,23,07,56,0.60
2017,05,23,07,57,6.10
2017,05,23,07,58,7.20
2017,05,23,07,59,9.70
2017,05,23,08,00,11.70
2017,05,23,08,01,13.20
2017,05,23,08,02,14.90
2017,05,23,08,03,11.50
2017,05,23,08,04,10.20
2017,05,23,08,05,10.20
2017,05,23,08,06,11.90
2017,05,23,08,07,9.60
2017,05,23,08,08,8.20
2017,05,23,08,09,11.20
2017,05,23,08,10,8.90
2017,05,23,08,11,7.80
2017,05,23,08,12,13.80
2017,05,23,08,13,10.60
2017,05,23,08,14,14.30
2017,05,23,08,15,14.40
2017,05,23,08,16,12.60
2017,05,23,08,17,8.20
2017,05,23,08,18,8.00
2017,05,23,08,19,8.90
2017,05,23,08,20,8.40
2017,05,23,08,21,15.10
2017,05,23,08,22,12.30
2017,05,23,08,23,9.50
2017,05,23,08,24,10.90
2017,05,23,08,25,10.70
2017,05,23,08,26,6.50
2017,05,23,08,27,7.90
2017,05,23,08,28,8.30
2017,05,23,08,29,4.40
2017,05,23,08,30,9.10
2017,05,23,08,31,9.10
2017,05,23,08,32,8.40
2017,05,23,08,33,8.00
2017,05,23,08,34,3.40
2017,05,23,08,35,6.80
2017,05,23,08,36,6.10
2017,05,23,08,37,5.90
2017,05,23,08,38,7.90
2017,05,23,08,39,11.30
2017,05,23,08,40,8.50
2017,05,23,08,41,9.70
2017,05,23,08,42,12.30
2017,05,23,08,43,9.10
2017,05,23,08,44,16.60
2017,05,23,08,45,10.80
2017,05,23,08,46,13.10
2017,05,23,08,47,10.80
2017,05,23,08,48,10.20
2017,05,23,08,49,6.70
2017,05,23,08,50,11.10
2017,05,23,08,51,9.50
2017,05,23,08,52,12.10
2017,05,23,08,53,13.30
2017,05,23,08,54,11.00
2017,05,23,08,55,9.40
2017,05,23,08,56,8.30
2017,05,23,08,57,12.90
2017,05,23,08,58,12.30
2017,05,23,08,59,11.30
2017,05,23,09,00,9.00
2017,05,23,09,01,13.20
2017,05,23,09,02,6.70
2017,05,23,09,03,8.80
2017,05,23,09,04,7.00
2017,05,23,09,05,7.20
2017,05,23,09,06,9.00
2017,05,23,09,07,7.70
2017,05,23,09,08,8.40
2017,05,23,09,09,13.10
2017,05,23,09,10,9.50
2017,05,23,09,11,12.20
2017,05,23,09,12,17.60
2017,05,23,09,13,15.80
2017,05,23,09,14,11.80
2017,05,23,09,15,12.20
2017,05,23,09,16,9.90
2017,05,23,09,17,13.70
2017,05,23,09,18,15.10
2017,05,23,09,19,18.90
2017,05,23,09,20,15.90
2017,05,23,09,21,8.90
2017,05,23,09,22,13.10
2017,05,23,09,23,13.40
2017,05,23,09,24,14.50
2017,05,23,09,25,11.00
2017,05,23,09,26,9.10
2017,05,23,09,27,6.80
2017,05,23,09,28,11.30
2017,05,23,09,29,15.00
2017,05,23,09,30,12.00
2017,05,23,09,31,12.10
2017,05,23,09,32,8.50
2017,05,23,09,33,12.30
2017,05,23,09,34,15.40
2017,05,23,09,35,13.60
2017,05,23,09,36,16.20
2017,05,23,09,37,15.50
2017,05,23,09,38,12.30
2017,05,23,09,39,11.50
2017,05,23,09,40,14.90
2017,05,23,09,41,9.20
2017,05,23,09,42,13.40
2017,05,23,09,43,7.60
2017,05,23,09,44,8.40
2017,05,23,09,45,5.20
2017,05,23,09,46,7.20
2017,05,23,09,47,2.90
2017,05,23,09,48,5.60
2017,05,23,09,49,5.30
2017,05,23,09,50,6.10
2017,05,23,09,51,12.40
2017,05,23,09,52,4.40
2017,05,23,09,53,5.30
2017,05,23,09,54,6.40
2017,05,23,09,55,5.00
2017,05,23,09,56,7.40
2017,05,23,09,57,6.70
2017,05,23,09,58,8.40
2017,05,23,09,59,7.30
2017,05,23,10,00,7.60
2017,05,23,10,01,2.70
2017,05,23,10,02,4.50
2017,05,23,10,03,5.20
2017,05,23,10,04,3.70
2017,05,23,10,05,6.50
2017,05,23,10,06,15.90
2017,05,23,10,07,14.80
2017,05,23,10,08,16.50
2017,05,23,10,09,14.50
2017,05,23,10,10,5.50
2017,05,23,10,11,13.20
2017,05,23,10,12,13.60
2017,05,23,10,13,18.40
2017,05,23,10,14,16.10
2017,05,23,10,15,17.20
2017,05,23,10,16,15.90
2017,05,23,10,17,16.40
2017,05,23,10,18,17.00
2017,05,23,10,19,11.10
2017,05,23,10,20,14.50
2017,05,23,10,21,10.60
2017,05,23,10,22,14.30
2017,05,23,10,23,19.10
2017,05,23,10,24,16.70
2017,05,23,10,25,10.80
2017,05,23,10,26,15.10
2017,05,23,10,27,14.30
2017,05,23,10,28,15.70
2017,05,23,10,29,15.50
2017,05,23,10,30,14.10
2017,05,23,10,31,13.20
2017,05,23,10,32,13.90
2017,05,23,10,33,13.70
2017,05,23,10,34,15.10
2017,05,23,10,35,15.70
2017,05,23,10,36,13.40
2017,05,23,10,37,13.90
2017,05,23,10,38,15.80
2017,05,23,10,39,15.40
2017,05,23,10,40,13.80
2017,05,23,10,41,15.60
2017,05,23,10,42,8.50
2017,05,23,10,43,10.50
2017,05,23,10,44,11.20
2017,05,23,10,45,13.70
2017,05,23,10,46,13.90
2017,05,23,10,47,14.80
2017,05,23,10,48,15.90
2017,05,23,10,49,15.00
2017,05,23,10,50,15.20
2017,05,23,10,51,15.50
2017,05,23,10,52,12.70
2017,05,23,10,53,10.30
2017,05,23,10,54,12.60
2017,05,23,10,55,15.70
2017,05,23,10,56,19.80
2017,05,23,10,57,20.00
2017,05,23,10,58,14.20
2017,05,23,10,59,14.10
2017,05,23,11,00,15.20
2017,05,23,11,01,16.00
2017,05,23,11,02,19.90
2017,05,23,11,03,17.30
2017,05,23,11,04,14.90
2017,05,23,11,05,13.80
2017,05,23,11,06,22.40
2017,05,23,11,07,16.10
2017,05,23,11,08,18.60
2017,05,23,11,09,18.30
2017,05,23,11,10,22.20
2017,05,23,11,11,19.30
2017,05,23,11,12,15.40
2017,05,23,11,13,17.80
2017,05,23,11,14,15.30
2017,05,23,11,15,14.80
2017,05,23,11,16,15.40
2017,05,23,11,17,16.70
2017,05,23,11,18,18.40
2017,05,23,11,19,23.30
2017,05,23,11,20,16.90
2017,05,23,11,21,16.30
2017,05,23,11,22,14.60
2017,05,23,11,23,18.00
2017,05,23,11,24,12.90
2017,05,23,11,25,20.80
2017,05,23,11,26,20.90
2017,05,23,11,27,13.00
2017,05,23,11,28,20.10
2017,05,23,11,29,16.20
2017,05,23,11,30,12.00
2017,05,23,11,31,13.50
2017,05,23,11,32,16.50
2017,05,23,11,33,16.90
2017,05,23,11,34,20.00
2017,05,23,11,35,12.00
2017,05,23,11,36,13.80
2017,05,23,11,37,13.10
2017,05,23,11,38,15.30
2017,05,23,11,39,11.50
2017,05,23,11,40,17.20
2017,05,23,11,41,22.20
2017,05,23,11,42,19.50
2017,05,23,11,43,15.20
2017,05,23,11,44,14.40
2017,05,23,11,45,22.80
2017,05,23,11,46,17.70
2017,05,23,11,47,19.60
2017,05,23,11,48,15.80
2017,05,23,11,49,17.80
2017,05,23,11,50,16.40
2017,05,23,11,51,11.60
2017,05,23,11,52,20.80
2017,05,23,11,53,16.90
2017,05,23,11,54,21.90
2017,05,23,11,55,13.20
2017,05,23,11,56,14.60
2017,05,23,11,57,22.60
2017,05,23,11,58,24.40
2017,05,23,11,59,20.60
2017,05,23,12,00,18.90
2017,05,23,12,01,18.60
2017,05,23,12,02,22.70
2017,05,23,12,03,21.50
2017,05,23,12,04,26.20
2017,05,23,12,05,21.00
2017,05,23,12,06,21.90
2017,05,23,12,07,24.40
2017,05,23,12,08,21.90
2017,05,23,12,09,22.70
2017,05,23,12,10,25.30
2017,05,23,12,11,17.40
2017,05,23,12,12,21.90
2017,05,23,12,13,18.30
2017,05,23,12,14,18.20
2017,05,23,12,15,19.60
2017,05,23,12,16,22.50
2017,05,23,12,17,22.50
2017,05,23,12,18,21.70
2017,05,23,12,19,15.80
2017,05,23,12,20,24.50
2017,05,23,12,21,18.10
2017,05,23,12,22,18.70
2017,05,23,12,23,16.50
2017,05,23,12,24,15.70
2017,05,23,12,25,25.00
2017,05,23,12,26,19.30
2017,05,23,12,27,19.90
2017,05,23,12,28,24.10
2017,05,23,12,29,13.10
2017,05,23,12,30,17.00
2017,05,23,12,31,14.60
2017,05,23,12,32,18.00
2017,05,23,12,33,11.30
2017,05,23,12,34,18.20
2017,05,23,12,35,18.40
2017,05,23,12,36,17.80
2017,05,23,12,37,11.90
2017,05,23,12,38,18.40
2017,05,23,12,39,18.60
2017,05,23,12,40,20.90
2017,05,23,12,41,12.90
2017,05,23,12,42,14.30
2017,05,23,12,43,13.70
2017,05,23,12,44,19.80
2017,05,23,12,45,16.70
2017,05,23,12,46,11.80
2017,05,23,12,47,23.00
2017,05,23,12,48,14.90
2017,05,23,12,49,16.50
2017,05,23,12,50,16.50
2017,05,23,12,51,16.80
2017,05,23,12,52,19.90
2017,05,23,12,53,20.90
2017,05,23,12,54,16.80
2017,05,23,12,55,21.10
2017,05,23,12,56,19.20
2017,05,23,12,57,22.00
2017,05,23,12,58,20.20
2017,05,23,12,59,16.20
2017,05,23,13,00,15.30
2017,05,23,13,01,10.80
2017,05,23,13,02,15.70
2017,05,23,13,03,13.50
2017,05,23,13,04,13.90
2017,05,23,13,05,12.30
2017,05,23,13,06,9.50
2017,05,23,13,07,7.50
2017,05,23,13,08,12.70
2017,05,23,13,09,14.90
2017,05,23,13,10,16.20
2017,05,23,13,11,11.40
2017,05,23,13,12,15.50
2017,05,23,13,13,12.40
2017,05,23,13,14,12.10
2017,05,23,13,15,17.80
2017,05,23,13,16,14.50
2017,05,23,13,17,13.70
2017,05,23,13,18,14.90
2017,05,23,13,19,8.90
2017,05,23,13,20,19.90
2017,05,23,13,21,18.10
2017,05,23,13,22,21.10
2017,05,23,13,23,26.80
2017,05,23,13,24,20.30
2017,05,23,13,25,18.50
2017,05,23,13,26,27.20
2017,05,23,13,27,26.70
2017,05,23,13,28,21.10
2017,05,23,13,29,27.40
2017,05,23,13,30,30.30
2017,05,23,13,31,20.00
2017,05,23,13,32,26.70
2017,05,23,13,33,21.30
2017,05,23,13,34,23.80
2017,05,23,13,35,28.00
2017,05,23,13,36,25.90
2017,05,23,13,37,22.80
2017,05,23,13,38,30.50
2017,05,23,13,39,23.10
2017,05,23,13,40,19.70
2017,05,23,13,41,28.20
2017,05,23,13,42,15.00
2017,05,23,13,43,14.20
2017,05,23,13,44,24.40
2017,05,23,13,45,24.40
2017,05,23,13,46,21.00
2017,05,23,13,47,24.40
2017,05,23,13,48,31.40
2017,05,23,13,49,24.00
2017,05,23,13,50,19.50
2017,05,23,13,51,32.70
2017,05,23,13,52,25.40
2017,05,23,13,53,17.40
2017,05,23,13,54,19.10
2017,05,23,13,55,27.20
2017,05,23,13,56,29.70
2017,05,23,13,57,28.30
2017,05,23,13,58,25.20
2017,05,23,13,59,31.70
2017,05,23,14,00,34.30
2017,05,23,14,01,29.00
2017,05,23,14,02,28.20
2017,05,23,14,03,28.10
2017,05,23,14,04,30.00
2017,05,23,14,05,22.90
2017,05,23,14,06,23.20
2017,05,23,14,07,25.70
2017,05,23,14,08,28.20
2017,05,23,14,09,25.30
2017,05,23,14,10,21.50
2017,05,23,14,11,16.40
2017,05,23,14,12,21.70
2017,05,23,14,13,22.80
2017,05,23,14,14,21.60
2017,05,23,14,15,17.90
2017,05,23,14,16,27.40
2017,05,23,14,17,23.60
2017,05,23,14,18,23.30
2017,05,23,14,19,15.90
2017,05,23,14,20,15.20
2017,05,23,14,21,26.30
2017,05,23,14,22,27.10
2017,05,23,14,23,25.00
2017,05,23,14,24,20.00
2017,05,23,14,25,19.00
2017,05,23,14,26,20.80
2017,05,23,14,27,21.40
2017,05,23,14,28,35.20
2017,05,23,14,29,24.20
2017,05,23,14,30,25.50
2017,05,23,14,31,24.10
2017,05,23,14,32,28.30
2017,05,23,14,33,18.70
2017,05,23,14,34,28.60
2017,05,23,14,35,27.20
2017,05,23,14,36,21.60
2017,05,23,14,37,22.80
2017,05,23,14,38,13.50
2017,05,23,14,39,26.50
2017,05,23,14,40,21.60
2017,05,23,14,41,23.80
2017,05,23,14,42,17.30
2017,05,23,14,43,15.20
2017,05,23,14,44,22.50
2017,05,23,14,45,17.80
2017,05,23,14,46,21.90
2017,05,23,14,47,25.50
2017,05,23,14,48,17.80
2017,05,23,14,49,19.80
2017,05,23,14,50,27.40
2017,05,23,14,51,24.40
2017,05,23,14,52,23.10
2017,05,23,14,53,18.20
2017,05,23,14,54,21.40
2017,05,23,14,55,19.70
2017,05,23,14,56,23.40
2017,05,23,14,57,22.50
2017,05,23,14,58,22.90
2017,05,23,14,59,22.50
2017,05,23,15,00,24.80
2017,05,23,15,01,22.70
2017,05,23,15,02,24.40
2017,05,23,15,03,24.60
2017,05,23,15,04,16.70
2017,05,23,15,05,26.30
2017,05,23,15,06,27.60
2017,05,23,15,07,24.10
2017,05,23,15,08,18.30
2017,05,23,15,09,25.10
2017,05,23,15,10,20.00
2017,05,23,15,11,26.40
2017,05,23,15,12,30.10
2017,05,23,15,13,29.60
2017,05,23,15,14,28.20
2017,05,23,15,15,28.20
2017,05,23,15,16,19.70
2017,05,23,15,17,21.90
2017,05,23,15,18,31.90
2017,05,23,15,19,22.70
2017,05,23,15,20,24.30
2017,05,23,15,21,16.80
2017,05,23,15,22,18.10
2017,05,23,15,23,29.10
2017,05,23,15,24,29.10
2017,05,23,15,25,24.80
2017,05,23,15,26,24.80
2017,05,23,15,27,26.80
2017,05,23,15,28,25.70
2017,05,23,15,29,23.10
2017,05,23,15,30,19.20
2017,05,23,15,31,32.60
2017,05,23,15,32,33.00
2017,05,23,15,33,26.00
2017,05,23,15,34,20.80
2017,05,23,15,35,22.30
2017,05,23,15,36,21.20
2017,05,23,15,37,24.80
2017,05,23,15,38,28.10
2017,05,23,15,39,13.60
2017,05,23,15,40,27.40
2017,05,23,15,41,29.00
2017,05,23,15,42,23.30
2017,05,23,15,43,22.20
2017,05,23,15,44,28.70
2017,05,23,15,45,20.00
2017,05,23,15,46,22.70
2017,05,23,15,47,21.20
2017,05,23,15,48,24.20
2017,05,23,15,49,27.10
2017,05,23,15,50,19.90
2017,05,23,15,51,26.50
2017,05,23,15,52,23.50
2017,05,23,15,53,24.30
2017,05,23,15,54,14.80
2017,05,23,15,55,25.20
2017,05,23,15,56,24.60
2017,05,23,15,57,29.50
2017,05,23,15,58,24.10
2017,05,23,15,59,20.60
2017,05,23,16,00,21.70
2017,05,23,16,01,20.60
2017,05,23,16,02,17.90
2017,05,23,16,03,20.10
2017,05,23,16,04,16.20
2017,05,23,16,05,16.40
2017,05,23,16,06,18.30
2017,05,23,16,07,21.20
2017,05,23,16,08,23.40
2017,05,23,16,09,20.20
2017,05,23,16,10,23.60
2017,05,23,16,11,26.20
2017,05,23,16,12,18.70
2017,05,23,16,13,15.30
2017,05,23,16,14,19.80
2017,05,23,16,15,16.00
2017,05,23,16,16,12.30
2017,05,23,16,17,12.90
2017,05,23,16,18,13.90
2017,05,23,16,19,15.80
2017,05,23,16,20,16.50
2017,05,23,16,21,22.00
2017,05,23,16,22,24.10
2017,05,23,16,23,18.10
2017,05,23,16,24,12.90
2017,05,23,16,25,17.50
2017,05,23,16,26,27.70
2017,05,23,16,27,16.90
2017,05,23,16,28,23.00
2017,05,23,16,29,29.50
2017,05,23,16,30,20.20
2017,05,23,16,31,20.10
2017,05,23,16,32,20.30
2017,05,23,16,33,24.30
2017,05,23,16,34,22.80
2017,05,23,16,35,23.90
2017,05,23,16,36,20.10
2017,05,23,16,37,28.10
2017,05,23,16,38,21.30
2017,05,23,16,39,22.70
2017,05,23,16,40,25.50
2017,05,23,16,41,15.60
2017,05,23,16,42,15.40
2017,05,23,16,43,23.30
2017,05,23,16,44,20.30
2017,05,23,16,45,19.30
2017,05,23,16,46,15.20
2017,05,23,16,47,24.00
2017,05,23,16,48,24.90
2017,05,23,16,49,26.40
2017,05,23,16,50,15.80
2017,05,23,16,51,16.70
2017,05,23,16,52,25.50
2017,05,23,16,53,21.10
2017,05,23,16,54,17.60
2017,05,23,16,55,27.00
2017,05,23,16,56,19.60
2017,05,23,16,57,23.80
2017,05,23,16,58,20.50
2017,05,23,16,59,25.60
2017,05,23,17,00,19.70
2017,05,23,17,01,24.60
2017,05,23,17,02,33.20
2017,05,23,17,03,30.30
2017,05,23,17,04,25.00
2017,05,23,17,05,22.20
2017,05,23,17,06,22.00
2017,05,23,17,07,19.20
2017,05,23,17,08,24.80
2017,05,23,17,09,23.80
2017,05,23,17,10,23.10
2017,05,23,17,11,25.70
2017,05,23,17,12,33.50
2017,05,23,17,13,33.70
2017,05,23,17,14,21.20
2017,05,23,17,15,18.80
2017,05,23,17,16,20.20
2017,05,23,17,17,17.50
2017,05,23,17,18,30.10
2017,05,23,17,19,26.70
2017,05,23,17,20,22.10
2017,05,23,17,21,23.90
2017,05,23,17,22,21.40
2017,05,23,17,23,28.10
2017,05,23,17,24,25.40
2017,05,23,17,25,26.00
2017,05,23,17,26,26.80
2017,05,23,17,27,26.90
2017,05,23,17,28,15.70
2017,05,23,17,29,22.90
2017,05,23,17,30,15.10
2017,05,23,17,31,23.90
2017,05,23,17,32,25.00
2017,05,23,17,33,18.90
2017,05,23,17,34,21.20
2017,05,23,17,35,25.50
2017,05,23,17,36,22.10
2017,05,23,17,37,17.40
2017,05,23,17,38,18.70
2017,05,23,17,39,23.10
2017,05,23,17,40,24.00
2017,05,23,17,41,20.90
2017,05,23,17,42,16.20